SCP
0 0 0 0 0 0 0 0 0 0 0 0 0 0 0 0 0 0 0 0 0 0 0 0 0 0 0 0 0 0 0 0 0 0 0 0 0 0 0 0 0 0 0 0 0 0 0 0 0
0 0 0 0 0 0 0 0 0 0 0 0 0 0 0 0 0 0 0 0 0 0 0 0 0 0 0 0 0 0 0 0 0 0 0 0 0 0 0 0 0 0 0 0 0 0 0 0 0
0 0 0 0 0 0 0 0 0 0 0 0 0 0 0 0 0 0 0 0 0 0 0 0 0 0 0 0 0 0 0 0 0 0 0 0 0 0 0 0 0 0 0 0 0 0 0 0 0
0 0 0 0 0 0 0 0 0 0 0 0 0 0 0 0 0 0 0 0 0 0 0 0 0 0 0 0 0 0 0 0 0 0 0 0 0 0 0 0 0 0 0 0 0 0 0 0 0
0 0 0 0 0 0 0 0 0 0 0 0 0 0 0 0 0 0 0 0 0 0 0 0 0 0 0 0 0 0 0 0 0 0 0 0 0 0 0 0 0 0 0 0 0 0 0 0 0
0 0 0 0 0 0 0 0 0 0 0 0 0 0 0 0 0 0 0 0 0 1 1 1 1 0 0 0 0 0 0 0 0 0 0 0 0 0 0 0 0 0 0 0 0 0 0 0 0
0 0 0 0 0 0 0 0 0 0 0 0 0 0 0 0 0 0 0 0 0 1 1 1 0 0 0 0 0 0 0 0 0 0 0 0 0 0 0 0 0 0 0 0 0 0 0 0 0
0 0 0 0 0 0 0 0 0 0 0 0 0 0 0 0 0 1 1 1 0 0 0 0 0 0 0 0 0 0 0 0 0 0 0 0 0 0 0 0 0 0 0 0 0 0 0 0 0
0 0 0 0 0 0 0 0 0 0 0 0 0 0 0 0 1 1 1 1 0 0 0 0 0 0 0 0 0 0 0 0 0 0 0 0 0 0 0 0 0 0 0 0 0 0 0 0 0
0 0 0 0 0 0 0 0 0 0 0 0 0 1 1 1 1 1 1 0 0 0 0 0 0 0 0 0 0 0 0 0 0 0 0 0 0 0 0 0 0 0 0 0 0 0 0 0 0
0 0 0 0 0 0 0 0 0 0 0 0 0 0 1 1 1 1 0 0 0 0 0 0 0 0 0 0 0 0 0 0 0 0 0 0 0 0 0 0 0 0 0 0 0 0 0 0 0
0 0 0 0 0 0 0 0 0 0 0 0 0 0 0 0 0 0 0 0 0 0 0 0 0 0 0 0 0 0 0 0 0 0 0 0 0 0 0 0 0 0 0 0 0 0 0 0 0
0 0 0 0 0 0 0 0 0 0 0 0 0 0 0 0 0 0 0 0 0 0 0 0 0 0 0 0 0 0 0 0 0 0 0 0 0 0 0 0 0 0 0 0 0 0 0 0 0
0 0 0 0 0 0 0 0 0 0 0 0 0 0 0 0 0 0 0 0 0 0 0 0 0 0 0 0 0 0 0 0 0 0 0 0 0 0 0 0 0 0 0 0 0 0 0 0 0
0 0 0 0 0 0 0 0 0 0 0 0 0 0 0 0 0 0 0 0 0 0 0 0 0 0 0 0 0 0 0 0 0 0 0 0 0 0 0 0 0 0 0 0 0 0 0 0 0
0 0 0 0 0 0 0 0 0 0 0 0 0 0 0 0 0 0 0 0 0 0 0 0 0 0 0 0 0 0 0 0 0 0 0 0 0 0 0 0 0 0 0 0 0 0 0 0 0
0 0 0 0 0 0 0 0 0 0 0 0 0 0 0 0 0 0 0 0 0 0 0 0 0 0 0 0 0 0 0 0 0 0 0 0 0 0 0 0 0 0 0 0 0 0 0 0 0
0 0 0 0 0 0 0 0 0 0 0 0 0 0 0 0 0 0 0 0 0 0 0 0 0 0 0 0 0 0 0 0 0 0 0 0 0 0 0 0 0 0 0 0 0 0 0 0 0
0 0 0 0 0 0 0 0 0 0 0 0 0 0 0 0 0 0 0 0 0 0 0 0 0 0 0 0 0 0 0 0 0 0 0 0 0 0 0 0 0 0 0 0 0 0 0 0 0
0 0 0 0 0 0 0 0 0 0 0 0 0 0 0 0 0 0 0 0 0 0 0 0 0 0 0 0 0 0 0 0 0 0 0 0 0 0 0 0 0 0 0 0 0 0 0 0 0
0 0 0 0 0 0 0 0 0 0 0 0 0 0 0 0 0 0 0 0 0 0 0 0 0 0 0 0 0 0 0 0 0 0 0 0 0 0 0 0 0 0 0 0 0 0 0 0 0
0 0 0 0 0 0 0 0 0 0 0 0 0 0 0 0 0 0 0 0 0 0 0 0 0 0 0 0 0 0 0 0 0 0 0 0 0 0 0 0 0 0 0 0 0 0 0 0 0
0 0 0 0 0 0 0 0 0 0 0 0 0 0 0 0 0 0 0 0 0 0 0 0 0 0 0 0 0 0 0 0 0 0 0 0 0 0 0 0 0 0 0 0 0 0 0 0 0
0 0 0 0 0 0 0 0 0 0 0 0 0 0 0 0 0 0 0 0 0 0 0 0 0 0 0 0 0 0 0 0 0 0 0 0 0 0 0 0 0 0 0 0 0 0 0 0 0
0 0 0 0 0 0 0 0 0 0 0 0 0 0 0 0 0 0 0 0 0 0 0 0 0 0 0 0 0 0 0 0 0 0 0 0 0 0 0 0 0 0 0 0 0 0 0 0 0
0 0 0 0 0 0 0 0 0 0 0 0 0 0 0 0 0 0 0 0 0 0 0 0 0 0 0 0 0 0 0 0 0 0 0 0 0 0 0 0 0 0 0 0 0 0 0 0 0
0 0 0 0 0 0 0 0 0 0 0 0 0 0 0 0 0 0 0 0 0 0 0 0 0 0 0 0 0 0 0 0 0 0 0 0 0 0 0 0 0 0 0 0 0 0 0 0 0
0 0 0 0 0 0 0 0 0 0 0 0 0 0 0 0 0 0 0 0 0 0 0 0 0 0 0 0 0 0 0 0 0 0 0 0 0 0 0 0 0 0 0 0 0 0 0 0 0
0 0 0 0 0 0 0 0 0 0 0 0 0 0 0 0 0 0 0 0 0 0 0 0 0 0 0 0 0 0 0 0 0 0 0 0 0 0 0 0 0 0 0 0 0 0 0 0 0
0 0 0 0 0 0 0 0 0 0 0 0 0 0 0 0 0 0 0 0 0 0 0 0 0 0 0 0 0 0 0 0 0 0 0 0 0 0 0 0 0 0 0 0 0 0 0 0 0
Wind_Speed
6 4 2 4 6 4 3 6 4 3 2 2 2 6 8 4 3 5 3 10 14 13 11 13 15 15 15 16 16 16 15 15 14 12 11 10 10 11 12 13 15 15 15 14 14 13 13 13 13
2 2 4 5 5 2 6 5 5 5 5 3 4 5 6 3 2 6 5 11 16 14 10 11 15 15 16 17 17 16 16 15 13 12 11 10 11 13 13 14 15 15 14 14 13 12 12 11 11
1 1 4 4 4 6 6 4 5 4 4 3 4 5 5 4 3 5 8 14 13 11 8 11 15 16 17 17 17 16 15 14 13 12 11 11 13 14 15 15 15 14 14 13 12 11 10 10 9
1 3 4 3 5 7 5 5 4 3 2 2 5 5 3 1 3 7 14 14 13 9 8 10 15 16 16 16 16 16 15 14 13 12 11 12 14 14 15 14 14 13 13 12 11 10 9 8 7
2 4 3 1 6 5 4 6 5 3 1 2 5 5 3 6 7 15 15 15 13 10 8 10 15 16 16 16 16 16 15 14 13 12 12 13 14 14 14 13 12 12 12 11 10 9 8 6 5
3 4 3 4 7 5 5 5 4 2 0 2 5 5 1 2 8 12 14 13 13 12 9 10 15 15 15 15 15 15 15 14 13 12 12 13 13 13 13 12 12 11 11 10 10 9 7 5 4
6 5 6 5 5 6 5 5 2 1 0 1 5 6 2 2 4 9 12 12 12 11 10 7 9 11 13 14 14 14 14 14 13 12 11 11 11 11 11 11 11 11 10 9 9 8 7 5 3
5 6 6 5 5 6 4 6 4 1 1 1 4 8 6 3 5 11 11 10 10 9 9 7 7 7 7 9 12 13 12 12 12 11 10 10 9 9 9 8 9 9 9 9 8 7 6 5 3
4 6 10 11 8 5 4 6 8 5 2 3 3 4 6 8 10 13 10 8 8 8 7 7 7 6 6 7 9 10 11 11 11 9 11 9 5 5 5 5 7 7 8 8 8 7 6 4 2
5 9 14 11 8 4 4 5 7 7 4 3 5 5 6 9 11 13 11 10 9 9 8 7 7 7 7 7 6 5 5 6 5 5 6 4 4 4 5 5 7 7 7 7 7 7 5 2 1
7 10 8 6 4 1 4 8 7 5 3 3 7 8 6 9 9 10 9 9 9 9 9 8 8 7 7 5 5 3 3 4 4 6 6 4 4 3 3 2 4 4 5 4 4 4 2 2 2
6 6 6 5 4 3 3 6 9 6 7 6 8 10 8 10 10 9 9 8 8 8 8 8 8 7 7 6 5 5 4 4 4 5 6 4 3 3 3 3 4 3 3 3 3 2 3 4 4
5 7 8 7 7 6 4 5 9 11 9 1 5 7 8 8 7 7 7 7 7 7 8 8 9 8 7 6 5 6 5 6 6 6 7 7 5 5 5 5 4 5 4 4 4 4 5 5 5
6 5 7 7 9 9 8 6 7 11 7 2 7 7 7 7 7 6 6 6 7 7 8 7 8 8 8 7 6 6 6 6 6 6 8 9 7 6 6 6 6 6 6 6 6 6 6 5 4
5 4 4 7 10 8 8 8 12 12 6 3 6 7 7 6 6 7 7 7 8 7 7 7 7 7 8 8 7 6 6 6 6 7 8 10 8 7 7 7 7 7 7 7 5 6 5 5 5
6 5 5 7 11 9 12 12 14 9 6 6 5 5 5 4 6 6 6 6 6 6 6 7 6 7 7 6 6 5 5 6 6 6 7 10 10 9 7 7 7 7 6 6 6 5 5 5 5
5 8 8 6 9 8 10 9 9 6 7 7 6 5 4 3 3 3 4 5 5 5 5 5 4 5 6 6 5 5 4 5 5 5 5 8 10 10 8 7 6 7 6 6 7 6 5 5 5
13 10 9 8 7 8 9 6 5 4 5 8 7 5 4 4 3 2 2 3 4 4 3 3 2 2 3 3 3 3 3 4 4 4 5 7 7 8 7 6 7 6 6 6 6 6 6 5 5
8 7 6 5 5 7 8 7 7 6 4 6 6 5 4 3 1 2 3 4 5 5 5 4 3 1 1 1 2 2 3 4 3 4 5 6 6 7 7 6 6 6 7 8 8 6 6 6 3
8 8 6 3 3 6 6 8 7 7 6 6 7 7 6 5 3 3 4 5 6 5 5 5 4 2 2 1 1 2 2 3 4 3 4 5 5 6 5 6 6 6 6 7 8 7 5 5 5
5 8 8 5 2 2 3 5 8 8 5 5 5 6 6 8 7 5 5 5 5 6 5 4 4 3 2 1 0 1 1 1 1 2 3 4 5 5 6 7 7 6 7 7 9 8 8 7 5
4 6 8 7 7 3 5 5 8 8 8 9 8 6 6 7 7 6 6 5 5 4 4 4 4 4 3 3 2 1 0 1 2 2 3 4 4 5 6 7 7 7 7 8 8 8 8 7 6
4 3 6 7 6 2 2 3 8 4 10 13 10 8 7 7 8 7 6 6 4 4 4 4 4 5 4 4 3 2 1 1 2 2 3 4 4 4 5 6 6 7 6 7 8 7 8 8 7
4 8 8 5 4 4 6 5 9 7 10 8 9 9 8 8 7 7 5 5 4 4 4 4 5 5 5 5 4 3 2 2 3 3 3 3 3 3 4 4 4 5 5 6 7 7 8 8 9
5 8 4 2 2 7 4 6 12 8 8 10 11 10 9 8 8 7 6 5 4 4 4 4 5 5 5 5 5 4 3 2 2 3 3 3 3 3 4 4 3 3 4 5 5 6 6 7 8
5 7 8 7 6 4 3 9 10 6 6 6 9 10 9 8 7 7 6 5 4 4 4 4 5 4 5 5 5 4 4 3 2 3 2 3 2 3 4 4 3 4 4 4 4 4 4 4 5
5 3 5 5 3 2 6 7 8 2 2 6 9 10 9 8 7 7 6 5 5 4 4 4 4 4 4 4 4 4 5 4 4 4 4 3 3 4 5 5 5 4 4 4 3 2 2 2 2
2 5 5 4 5 5 6 6 6 5 6 7 10 9 8 7 6 6 5 5 4 4 4 4 4 4 3 4 4 4 5 5 5 4 5 5 5 5 6 6 6 6 6 5 4 3 3 3 2
4 4 4 4 4 5 4 8 6 10 11 11 10 8 8 8 7 6 5 5 5 4 4 4 4 4 4 4 4 5 5 5 6 5 6 5 6 7 7 6 6 7 7 6 5 5 5 4 4
3 5 7 6 5 4 3 9 5 6 8 8 7 7 7 7 7 6 6 5 5 4 4 4 3 3 3 4 4 5 5 6 6 6 6 6 6 7 7 7 7 8 8 8 7 7 7 6 6
Wind_Direction
331 334 69 60 60 60 238 245 237 272 216 218 136 108 104 98 145 156 115 138 135 142 149 148 145 144 140 136 132 129 125 121 117 114 112 114 118 119 119 114 112 108 103 100 98 95 93 94 96
327 6 62 65 99 169 253 248 245 234 215 186 127 103 86 73 85 107 117 142 139 142 146 148 144 143 140 137 133 130 127 124 120 117 115 116 120 121 119 115 112 109 106 105 103 101 99 98 98
305 70 86 89 146 193 227 254 235 252 245 176 93 74 102 133 138 123 144 140 134 135 141 147 144 143 141 138 135 132 130 127 125 123 120 119 122 121 117 115 114 112 112 111 110 108 105 102 98
83 65 64 103 219 226 230 291 296 270 280 69 93 63 53 350 155 129 136 136 131 127 134 147 144 143 141 139 137 135 133 132 131 130 128 123 123 121 119 119 119 119 120 119 117 116 113 107 99
82 91 92 218 242 251 260 277 273 248 193 68 94 91 27 350 102 125 135 135 133 131 136 147 145 145 143 142 140 139 138 138 139 139 135 128 127 125 125 126 128 129 129 129 127 126 124 119 108
97 99 137 217 252 277 287 285 294 259 208 88 98 97 54 40 112 132 136 137 137 138 140 147 147 147 147 146 145 144 145 146 146 146 142 136 133 134 135 137 139 140 140 140 139 139 140 139 129
146 145 181 204 256 280 287 304 261 238 109 103 117 105 115 98 121 133 134 135 138 141 142 145 150 150 151 150 150 150 150 151 151 151 147 141 140 144 147 150 152 152 151 150 150 152 155 161 162
158 146 181 199 227 262 317 326 303 236 231 68 105 130 163 171 118 123 127 131 136 141 145 144 146 149 149 152 154 154 154 154 154 150 144 144 148 153 157 161 165 162 161 161 162 164 169 177 188
132 153 198 198 204 240 335 335 327 317 64 51 66 135 147 127 116 121 124 127 138 147 151 148 147 148 147 153 160 157 157 159 155 151 152 149 151 156 163 174 176 173 171 173 176 179 182 189 221
148 190 207 200 192 216 308 320 324 329 6 44 56 69 104 112 125 134 145 151 158 163 167 162 160 159 157 165 155 157 159 159 155 156 159 156 160 171 177 189 188 184 183 187 192 195 194 189 268
170 199 202 204 183 211 309 316 323 309 279 188 161 157 139 126 133 142 153 161 167 170 173 176 173 169 169 164 159 163 158 159 163 168 172 169 170 181 187 182 194 193 192 195 207 206 207 218 242
175 202 182 184 147 167 267 305 307 287 262 246 187 165 154 149 152 158 162 164 164 167 176 180 180 175 178 171 171 172 169 173 179 186 184 177 180 191 193 194 197 194 192 194 200 204 220 234 245
182 181 186 173 154 172 198 257 286 286 278 254 138 146 160 162 168 175 174 172 167 173 176 174 174 175 176 175 179 181 184 186 190 192 196 192 191 195 197 202 202 203 197 197 202 212 220 228 237
184 165 171 170 173 183 189 224 251 266 269 147 136 154 172 176 178 177 182 188 190 189 186 177 174 173 171 177 183 185 190 193 194 198 203 202 201 196 195 201 204 208 206 205 205 210 217 224 222
149 151 152 174 178 177 166 208 227 243 250 199 161 162 174 185 179 184 191 191 196 199 197 190 187 178 176 181 189 189 192 194 200 204 205 207 206 200 196 201 206 209 207 206 208 214 218 226 224
133 145 170 193 174 168 165 212 224 227 219 216 201 185 181 192 192 194 191 185 187 191 198 203 200 189 191 192 195 195 192 194 201 206 206 209 210 206 201 205 210 206 204 205 208 210 214 223 222
145 171 181 193 183 163 176 210 226 223 207 221 219 212 207 216 220 213 193 176 168 174 182 189 197 196 203 204 204 207 205 205 205 204 208 212 212 210 208 214 213 200 204 207 210 210 205 216 221
174 173 175 182 190 165 183 207 230 233 206 221 221 216 210 213 225 191 154 139 124 117 123 144 167 205 211 209 214 223 230 232 225 218 217 214 215 213 213 221 221 207 209 214 211 210 208 210 210
133 138 159 185 186 169 196 210 232 248 230 224 217 203 191 186 170 93 84 94 95 79 81 83 89 55 94 156 195 217 232 238 239 235 231 223 220 217 215 224 223 215 219 222 215 211 214 220 180
142 148 168 193 195 177 204 228 237 249 231 217 209 200 184 157 124 90 75 68 75 79 74 69 63 56 63 124 189 210 228 240 243 250 248 240 235 227 219 220 224 220 224 229 222 212 212 212 180
167 169 174 173 120 135 155 251 243 250 244 236 222 205 183 165 151 129 104 90 80 70 64 61 51 50 47 39 80 16 8 334 311 275 265 261 255 247 238 232 229 225 220 228 226 217 215 221 206
184 192 172 154 137 195 171 230 258 233 239 236 225 201 181 160 146 139 127 109 95 82 63 51 41 39 34 41 64 86 135 254 262 271 275 287 277 265 255 247 239 235 229 229 229 222 219 218 215
189 164 145 147 137 134 174 202 273 237 230 232 219 200 181 165 151 145 136 124 107 86 66 49 44 37 28 35 45 56 29 270 288 302 302 298 292 281 270 258 251 245 239 236 233 226 221 218 218
132 85 66 61 91 205 204 187 264 229 218 220 204 189 175 163 150 138 127 116 97 73 57 47 47 36 27 33 34 37 14 339 334 329 319 310 303 301 302 287 268 258 251 246 242 235 227 225 224
134 114 99 118 202 239 197 201 246 241 228 209 189 175 170 160 148 140 132 118 103 81 61 50 54 39 25 28 25 19 11 1 339 317 313 318 319 318 320 319 304 287 274 267 259 249 241 233 229
170 142 154 174 199 250 206 227 250 268 260 195 161 156 157 155 150 147 143 131 115 97 75 62 60 44 27 24 15 13 12 8 351 344 344 342 331 319 326 333 331 320 310 300 286 270 261 251 242
141 154 152 130 154 210 244 265 298 335 98 137 145 151 158 158 155 149 141 130 122 106 86 79 73 52 30 18 14 17 15 17 14 11 13 5 354 347 355 358 359 354 349 339 327 317 306 286 268
135 142 116 134 166 227 259 248 240 222 194 170 164 163 162 156 151 146 141 136 127 115 99 81 77 64 37 27 25 35 24 22 19 23 20 12 5 6 7 10 10 10 11 10 15 12 6 23 15
153 162 160 164 182 186 240 260 227 210 195 182 177 169 163 162 160 156 151 142 130 117 104 89 73 60 42 36 37 39 30 26 30 31 23 17 17 17 18 17 21 22 20 19 29 30 29 41 38
191 189 165 174 210 196 208 267 288 233 190 171 170 171 167 163 161 158 153 143 135 125 111 96 79 62 47 47 52 46 38 35 35 30 25 27 29 25 25 27 32 31 30 30 36 39 38 44 44